Weather observations for the past three days for
McMinnville, McMinnville Municipal Airport
Imperial (Metric)
Date Time (pdt) Wind (mph) Vis. (mi.) Weather Sky Cond. Temperature (ºF) Relative Humidity Wind Chill (°F) Heat Index (°F) Pressure Precipitation (in)
Air Dwpt 6 hour altimeter (in) sea level (mb) 1 hr 3 hr 6 hr
Max. Min.
13 18:53 NE 8 10.00 Fair CLR 93.9 54 26% 92 29.9 1012.3
13 17:53 N 8 10.00 Fair CLR 93.9 52 24% 91 29.89 1012.1
13 16:53 NE 8 10.00 Fair CLR 95 53.1 95 78.1 24% 93 29.9 1012.4
13 15:53 N 10 G 16 10.00 Fair CLR 93.9 54 26% 92 29.92 1013.0
13 14:53 Vrbl 7 10.00 Fair CLR 91.9 55 29% 90 29.94 1013.5
13 13:53 Vrbl 3 10.00 Fair CLR 88 57.9 36% 87 29.94 1013.8
13 12:53 NE 6 10.00 Fair CLR 86 57.9 39% 85 29.96 1014.4
13 11:53 SE 7 10.00 Fair CLR 81 57.9 45% 81 29.97 1014.8
13 10:53 Calm 10.00 Fair CLR 78.1 57 78.1 54 48% 79 29.98 1015.1
13 09:53 Calm 10.00 Fair CLR 72 57 59% 29.99 1015.4
13 08:53 W 3 10.00 Fair CLR 66 55.9 70% 30 1015.7
13 07:53 W 3 10.00 Fair CLR 61 54 78% 30.01 1016.0
13 06:53 W 3 10.00 Fair CLR 57 53.1 87% 30 1015.9
13 05:53 W 3 10.00 Fair CLR 54 52 93% 29.99 1015.5
13 04:53 W 5 10.00 Fair CLR 55 52 64 55 90% 29.99 1015.3
13 03:53 Calm 10.00 Fair CLR 55.9 53.1 90% 29.98 1015.0
13 02:53 W 6 10.00 Fair CLR 57.9 53.1 84% 29.98 1015.0
13 01:53 W 3 10.00 Fair CLR 59 54 83% 29.98 1015.0
13 00:53 W 6 10.00 Fair CLR 61 54 78% 29.98 1015.0
12 23:53 W 7 10.00 Fair CLR 62.1 55 78% 29.98 1015.0
12 22:53 W 8 10.00 Fair CLR 64 55.9 89.1 64 75% 29.97 1014.9
12 21:53 W 9 10.00 Fair CLR 69.1 57 66% 29.96 1014.4
12 20:53 N 8 10.00 Fair CLR 78.1 57 48% 79 29.95 1013.9
12 19:53 N 9 10.00 Fair CLR 82.9 57 41% 82 29.95 1013.9
12 18:53 N 9 10.00 Fair CLR 87.1 55.9 35% 86 29.94 1013.7
12 17:53 N 10 10.00 Fair CLR 89.1 55 31% 87 29.94 1013.8
12 16:53 N 7 10.00 Fair CLR 88 54 90 70 31% 86 29.96 1014.2
12 15:53 N 7 10.00 Fair CLR 88 55 33% 86 29.98 1014.9
12 14:53 N 14 10.00 Fair CLR 86 55 35% 84 29.99 1015.5
12 13:53 N 13 G 20 8.00 Fair CLR 84.9 55 36% 84 30.01 1016.0
12 12:53 NE 9 G 18 10.00 Fair CLR 80.1 53.1 39% 80 30.03 1016.8
12 11:53 Vrbl 5 10.00 Fair CLR 75.9 52 43% 78 30.06 1017.6
12 10:53 NE 5 9.00 Fair CLR 70 51.1 71.1 51.1 51% 30.07 1018.2
12 09:53 Calm 10.00 Fair CLR 66.9 50 55% 30.09 1018.8
12 08:53 Calm 10.00 Fair CLR 63 51.1 65% 30.1 1019.2
12 07:53 W 6 10.00 Fair CLR 57.9 50 75% 30.11 1019.4
12 06:53 W 5 10.00 Fair CLR 55 50 83% 30.11 1019.5
12 05:53 W 6 10.00 Fair CLR 52 48 86% 30.1 1019.0
12 04:53 W 3 10.00 Fair CLR 52 48.9 62.1 51.1 89% 30.08 1018.6
12 03:53 W 6 10.00 Fair CLR 53.1 48.9 86% 30.07 1018.1
12 02:53 W 3 10.00 Fair CLR 54 48.9 83% 30.07 1018.0
12 01:53 W 3 10.00 Fair CLR 55 50 83% 30.06 1017.9
12 00:53 W 5 10.00 Fair CLR 57 51.1 81% 30.07 1018.0
11 23:53 W 6 10.00 Fair CLR 59 52 78% 30.07 1018.0
11 22:53 W 5 10.00 Fair CLR 61 52 87.1 61 72% 30.06 1017.8
11 21:53 N 7 10.00 Fair CLR 70 48 46% 30.05 1017.3
11 20:53 N 12 10.00 Fair CLR 73 50 44% 30.03 1016.8
11 19:53 N 10 8.00 Fair CLR 79 46.9 32% 79 30.02 1016.6
11 18:53 N 14 10.00 Fair CLR 82.9 48 30% 81 30.02 1016.3
11 17:53 N 13 10.00 Fair CLR 84.9 52 32% 83 30.02 1016.3
11 16:53 N 13 10.00 Fair CLR 87.1 52 87.1 75 30% 85 30.03 1016.6
11 15:53 N 10 G 18 10.00 Fair CLR 86 54 33% 84 30.04 1017.1
11 14:53 N 12 G 18 10.00 Fair CLR 84.9 55 36% 84 30.05 1017.5
11 13:53 N 10 10.00 Fair CLR 84 55 37% 83 30.07 1018.2
11 12:53 Vrbl 3 10.00 Fair CLR 81 54 39% 81 30.09 1018.9
11 11:53 N 8 10.00 Fair CLR 77 53.1 43% 78 30.11 1019.6
11 10:53 NE 8 10.00 Fair CLR 75 52 75 53.1 45% 78 30.12 1019.9
11 09:53 N 3 10.00 Fair CLR 71.1 52 51% 30.13 1020.1
11 08:53 Calm 10.00 Fair CLR 66 53.1 63% 30.14 1020.4
11 07:53 W 3 10.00 Fair CLR 63 54 73% 30.14 1020.4
11 06:53 NW 5 10.00 Fair CLR 57.9 53.1 84% 30.13 1020.1
11 05:53 Calm 10.00 Fair CLR 55 52 90% 30.12 1019.7
11 04:53 W 5 10.00 Fair CLR 55 52 66 54 90% 30.11 1019.4
11 03:53 W 5 10.00 Fair CLR 57 52 83% 30.1 1019.1
11 02:53 Calm 10.00 Fair CLR 55.9 51.1 84% 30.09 1018.8
11 01:53 Calm 10.00 Fair CLR 59 52 78% 30.09 1018.7
11 00:53 Calm 10.00 Fair CLR 60.1 52 75% 30.08 1018.6
10 23:53 Calm 10.00 Fair CLR 62.1 52 70% 30.08 1018.6
10 22:53 SW 6 10.00 Fair CLR 66.9 53.1 93.9 66.9 61% 30.07 1018.0
10 21:53 N 8 10.00 Fair CLR 73.9 51.1 45% 30.06 1017.7
10 20:53 N 8 10.00 Fair CLR 77 48.9 37% 78 30.03 1016.7
10 19:53 N 13 10.00 Fair CLR 82.9 48 30% 81 30.01 1016.1
Date Time (pdt) Wind (mph) Vis. (mi.) Weather Sky Cond. Air Dwpt Max. Min. Relative Humidity Wind Chill (°F) Heat Index (°F) altimeter (in) sea level (mb) 1 hr 3 hr 6 hr
6 hour
Temperature (ºF) Pressure Precipitation (in)